STARLINK-4723, 53797

Orbit data source: Space-Track

STARLINK-4723, 53797 is a payload satellite owned by SpaceX/Seattle (US) in LEO that was launched on Sun, 11 Sep 2022 UTC via an FALCON 9 launch vehicle from the Air Force Eastern Test Range (AFETR). Payload-class satellites include a variety of spacecraft equipped with specific instruments for various scientific and technological missions. These include communications satellites like Starlink; space stations such as the ISS; scientific satellites like the Hubble; Earth observation satellites from companies like Planet Labs, Umbra, and HawkEye 360; GPS; miniature CubeSats for education and research; and military/defense satellites.

Loading next visibility...
Identifier
53797, 2022-111AA
Orbit
LEO
Country
Flag of USUS
Related business
Manufacturer
SpaceX/Seattle
Mission
Operational Commercial Communications
Bus & Motor
STARLINK, Unknown motor
Mass
305 kg wet, ~290 kg dry
Launch date (UTC)
2022-09-11 (3 years ago)
Launch vehicle
FALCON 9
Launch site
Air Force Eastern Test Range (AFETR)
Object type
Payload
Rocket body
Debris
Shape & HBR
Box + 1 Pan, 10.1 m
Radar Cross Section
13.562 m², Large (>1 m²)

Expand to show TLE details & history
Last TLE update: 14 hours ago

TLE from 14 hours ago
0 STARLINK-4723
1 53797U 22111AA  25300.88719075  .00000124  00000-0  25889-4 0  9996
2 53797  53.2158 149.8579 0001533  81.2663 278.8503 15.08840150173633
Epoch: 2025-10-27T21:17Z
TLE epoch observation values (Epoch: 2025-10-27T21:17:33.280Z)
Latitude
-0.00002°
Longitude
153.98663°
Altitude
540.477 km
Speed
7.593 km/s
True Right ascension
09h 59m 25s
True Declination
0° 00' 00"
Sunlit
Object was in daylight at epoch
Visualization orbit readout
Latitude
Unknown
Longitude
Unknown
Altitude
Unknown
Speed
Unknown
Apparent Right ascension
Unknown
Apparent Declination
Unknown
Sunlit
N/A
Visualization observer readout
Local Sidereal Time
07:06:34
Azimuth
Unknown
Elevation
Unknown
Doppler factor
Unknown
Orbital elements
Apogee altitude
541.049 km
Perigee altitude
538.928 km
Semi-major axis
6,918.125 km
Eccentricity
0.00015
Inclination
53.2158°
RAAN
149.8579°
Arg. of periapsis
81.2663°
True anomaly
278.83294°
Mean anomaly
278.8503°
Eccentric anomaly
278.84162°
Mean motion
3.7719 °/min
Orbital period
95.44 mins
BSTAR
0.000025889
Loading maneuver chart data...
Computing Atmospheric mass density...
Loading historical data...
Loading historical data...
Loading historical data...
Loading historical data...
Loading historical data...
Loading historical data...
Loading historical data...

Documentation

Showing up to 5 results
|